Regional Weather Roundup
Issued by NWS

Home | Current Version | Previous Version | Graphics & Text | Print | Product List | Glossary On
Versions: 1 2 3 4 5 6 7 8 9 10 11 12 13 14 15 16 17 18 19 20 21 22 23 24 25 26 27 28 29 30 31 32 33 34 35 36 37 38 39 40 41 42 43 44 45 46 47 48 49 50
663
ASUS43 KLOT 300703
RWRIL

ILLINOIS REGIONAL WEATHER ROUNDUP
NATIONAL WEATHER SERVICE CHICAGO/ROMEOVILLE IL
200 AM CDT SAT APR 30 2016

NOTE: "FAIR" INDICATES FEW OR NO CLOUDS BELOW 12,000 FEET WITH NO
SIGNIFICANT WEATHER AND/OR OBSTRUCTIONS TO VISIBILITY.

* THESE STATIONS ARE NOT UNDER NWS QUALITY CONTROL. THEY ALSO MAY NOT
  REPORT WEATHER SUCH AS PRECIPITATION OR FOG.

ILZ001-002-007-009-015-016-024-300800-
NORTHWEST ILLINOIS

CITY           SKY/WX    TMP DP  RH WIND       PRES   REMARKS
MOLINE         CLOUDY    48  40  73 E16       30.01F
STERLING*      MOCLDY    45  41  87 E12       30.05F
$$

ILZ003-004-008-010-011-017-018-300800-
NORTH CENTRAL ILLINOIS

CITY           SKY/WX    TMP DP  RH WIND       PRES   REMARKS
ROCKFORD       CLOUDY    45  39  79 NE8       30.10F
FREEPORT*      CLOUDY    41  39  93 NE6       30.09F FOG
DE KALB*       CLOUDY    43  38  85 NE10      30.07F
$$

ILZ005-006-012>014-019>023-300800-
NORTHEAST ILLINOIS

CITY           SKY/WX    TMP DP  RH WIND       PRES   REMARKS
CHICAGO-OHARE  CLOUDY    44  38  79 NE8       30.07F
CHICAGO-MIDWAY CLOUDY    45  38  76 NE10      30.06F
AURORA         CLOUDY    44  38  79 NE9       30.06F
LANSING*       PTCLDY    42  40  91 NE6       30.06F
WAUKEGAN       CLOUDY    43  36  76 NE8       30.10F
DUPAGE AIRPORT CLOUDY    43  36  76 NE8       30.06F
WHEELING       CLOUDY    43  38  82 NE6       30.10F
NORTHERLY ISL    N/A     42  39  89 N7          N/A
NORTHERLY ISL    N/A     42  39  89 N7          N/A
$$

LMZ740>746-300800-
SOUTHERN LAKE MICHIGAN

STATION/POSITION SKY/WX   TEMP    WIND        PRES    VSBY  WAVE
                          AIR SEA DIR/SP/G                  HT/PER
                          (F)     (DEG/KT/KT) (MB)    (MI)  (FT/S)
SOUTHERN BUOY              42 40   70/  8/ 10 1020.1          1
HARRISON CRIB              43      50/  6/  7   N/A
BURNHAM HARBOR             43      30/  4/  9   N/A
CALUMET HARBOR             43      20/  7/  9 1018.5F
BURNS HARBOR               45      60/  8/  9 1019.3F
MICHIGAN CITY              45      60/  7/  8   N/A
ST. JOSEPH                 49 47                N/A           2/ 4
$$

ILZ025>027-034>036-040-047-049-050-058-095>099-300800-
WEST-CENTRAL ILLINOIS

CITY           SKY/WX    TMP DP  RH WIND       PRES   REMARKS
QUINCY         LGT RAIN  50  47  89 E17G30    29.88F FOG
MACOMB*        CLOUDY    48  46  92 E16       29.98F FOG
$$

ILZ028>032-037-038-041>044-048-051>054-059>061-300800-
CENTRAL ILLINOIS

CITY           SKY/WX    TMP DP  RH WIND       PRES   REMARKS
BLOOMINGTON    CLOUDY    46  45  97 E16       30.00F FOG
DECATUR        CLOUDY    51  46  83 E14       29.95F HAZE
PEORIA         CLOUDY    47  41  80 E15       30.00S
SPRINGFIELD    CLOUDY    53  48  83 E12       29.95F
TAYLORVILLE    NOT AVBL
$$

ILZ033-039-045-046-055>057-062-063-300800-
EAST-CENTRAL ILLINOIS

CITY           SKY/WX    TMP DP  RH WIND       PRES   REMARKS
CHAMPAIGN      MOCLDY    49  46  90 NE16      29.96F
MATTOON        CLOUDY    55  48  77 E7        29.94F
$$

ILZ079-100>102-300800-
SOUTHWEST ILLINOIS

CITY           SKY/WX    TMP DP  RH WIND       PRES   REMARKS
ALTON          TSTM      56  55  97 E9        29.91F
BELLEVILLE     LGT RAIN  57  57 100 E3        29.90F
CAHOKIA*       CLOUDY    59  55  87 E7        29.90F
SPARTA*        CLOUDY    59  55  86 E10       29.91F
$$

ILZ064>066-069>071-074>076-080>082-084>086-088>090-092>094-300800-
SOUTH-CENTRAL ILLINOIS

CITY           SKY/WX    TMP DP  RH WIND       PRES   REMARKS
CARBONDALE     CLOUDY    60  54  80 E6        29.91S
MT. VERNON     CLOUDY    59  52  77 E5        29.92F
SALEM*         DRIZZLE   60  55  83 E6        29.91F
$$

ILZ067-068-072-073-078-083-087-091-300800-
SOUTHEAST ILLINOIS

CITY           SKY/WX    TMP DP  RH WIND       PRES   REMARKS
LAWRENCEVILLE  CLOUDY    60  53  77 NE9       29.93F
FLORA*         CLOUDY    60  57  88 E8        29.92F
HARRISBURG*    CLOUDY    60  57  90 E6        29.92F
ROBINSON*      LGT RAIN  57  53  86 E6        29.96F
$$

ABBREVIATIONS USED IN REMARKS
   TC - TEMPERATURE IN CELSIUS
  WCI - WIND CHILL INDEX
   HX - HEAT INDEX
  VSB - VISIBILITY
$$





USA.gov is the U.S. government's official web portal to all federal, state and local government web resources and services.